Time,TemperatureF,DewpointF,PressureIn,WindDirection,WindDirectionDegrees,WindSpeedMPH,WindSpeedGustMPH,Humidity,HourlyPrecipIn,Conditions,Clouds,dailyrainin,SoftwareType,DateUTC
2013-06-20 00:12:00,56.0,46.0,-100.00,North,-999,-999.0,-999.0,69,0.00,,,0.00,,2013-06-20 07:12:00,
2013-06-20 00:22:00,56.0,46.0,-100.00,North,-999,-999.0,-999.0,69,0.00,,,0.00,,2013-06-20 07:22:00,
2013-06-20 00:34:00,56.0,46.0,-100.00,North,-999,-999.0,-999.0,69,0.00,,,0.00,,2013-06-20 07:34:00,
2013-06-20 00:43:00,55.0,46.0,-100.00,North,-999,-999.0,-999.0,70,0.00,,,0.00,,2013-06-20 07:43:00,
2013-06-20 01:11:00,55.0,46.0,-100.00,North,-999,-999.0,-999.0,70,0.00,,,0.00,,2013-06-20 08:11:00,
2013-06-20 01:22:00,55.0,46.0,-100.00,North,-999,-999.0,-999.0,70,0.00,,,0.00,,2013-06-20 08:22:00,
2013-06-20 01:34:00,55.0,46.0,-100.00,North,-999,-999.0,-999.0,70,0.00,,,0.00,,2013-06-20 08:34:00,
2013-06-20 02:11:00,54.0,46.0,-100.00,North,-999,-999.0,-999.0,73,0.00,,,0.00,,2013-06-20 09:11:00,
2013-06-20 02:22:00,54.0,46.0,-100.00,North,-999,-999.0,-999.0,73,0.00,,,0.00,,2013-06-20 09:22:00,
2013-06-20 02:33:00,54.0,46.0,-100.00,North,-999,-999.0,-999.0,73,0.00,,,0.00,,2013-06-20 09:33:00,
2013-06-20 02:42:00,54.0,46.0,-100.00,North,-999,-999.0,-999.0,73,0.00,,,0.00,,2013-06-20 09:42:00,
2013-06-20 02:43:00,54.0,46.0,-100.00,North,-999,-999.0,-999.0,75,0.00,,,0.00,,2013-06-20 09:43:00,
2013-06-20 03:11:00,54.0,46.0,-100.00,North,-999,-999.0,-999.0,75,0.00,,,0.00,,2013-06-20 10:11:00,
2013-06-20 03:22:00,54.0,46.0,-100.00,North,-999,-999.0,-999.0,75,0.00,,,0.00,,2013-06-20 10:22:00,
2013-06-20 03:33:00,54.0,46.0,-100.00,North,-999,-999.0,-999.0,75,0.00,,,0.00,,2013-06-20 10:33:00,
2013-06-20 04:11:00,54.0,46.0,-100.00,North,-999,-999.0,-999.0,75,0.00,,,-99.99,,2013-06-20 11:11:00,
2013-06-20 04:22:00,54.0,46.0,-100.00,North,-999,-999.0,-999.0,75,0.00,,,-99.99,,2013-06-20 11:22:00,
2013-06-20 04:34:00,54.0,46.0,-100.00,North,-999,-999.0,-999.0,75,0.00,,,-99.99,,2013-06-20 11:34:00,
2013-06-20 04:42:00,54.0,46.0,-100.00,North,-999,-999.0,-999.0,75,0.00,,,-99.99,,2013-06-20 11:42:00,
2013-06-20 06:11:00,53.0,46.0,-100.00,North,-999,-999.0,-999.0,75,-99.99,,,0.00,,2013-06-20 13:11:00,
2013-06-20 06:22:00,53.0,46.0,-100.00,North,-999,-999.0,-999.0,75,-99.99,,,0.00,,2013-06-20 13:22:00,
2013-06-20 06:33:00,53.0,46.0,-100.00,North,-999,-999.0,-999.0,75,-99.99,,,0.00,,2013-06-20 13:33:00,
2013-06-20 06:42:00,53.0,46.0,-100.00,North,-999,-999.0,-999.0,75,-99.99,,,0.00,,2013-06-20 13:42:00,
2013-06-20 07:11:00,54.0,47.0,-100.00,North,-999,-999.0,-999.0,77,0.00,,,0.00,,2013-06-20 14:11:00,
2013-06-20 07:22:00,54.0,47.0,-100.00,North,-999,-999.0,-999.0,77,0.00,,,0.00,,2013-06-20 14:22:00,
2013-06-20 07:32:00,54.0,47.0,-100.00,North,-999,-999.0,-999.0,77,0.00,,,0.00,,2013-06-20 14:32:00,
2013-06-20 07:42:00,54.0,47.0,-100.00,North,-999,-999.0,-999.0,77,0.00,,,0.00,,2013-06-20 14:42:00,
2013-06-20 09:11:00,59.0,48.0,-100.00,North,-999,-999.0,-999.0,65,-99.99,,,0.00,,2013-06-20 16:11:00,
2013-06-20 09:22:00,59.0,48.0,-100.00,North,-999,-999.0,-999.0,65,-99.99,,,0.00,,2013-06-20 16:22:00,
2013-06-20 09:33:00,59.0,48.0,-100.00,North,-999,-999.0,-999.0,65,-99.99,,,0.00,,2013-06-20 16:33:00,
2013-06-20 09:42:00,59.0,48.0,-100.00,North,-999,-999.0,-999.0,65,-99.99,,,0.00,,2013-06-20 16:42:00,
2013-06-20 10:11:00,63.0,48.0,-100.00,North,-999,-999.0,-999.0,59,0.00,,,-99.99,,2013-06-20 17:11:00,
2013-06-20 10:22:00,63.0,48.0,-100.00,North,-999,-999.0,-999.0,59,0.00,,,-99.99,,2013-06-20 17:22:00,
2013-06-20 10:32:00,63.0,48.0,-100.00,North,-999,-999.0,-999.0,59,0.00,,,-99.99,,2013-06-20 17:32:00,
2013-06-20 10:42:00,63.0,48.0,-100.00,North,-999,-999.0,-999.0,59,0.00,,,-99.99,,2013-06-20 17:42:00,
2013-06-20 10:43:00,64.0,45.0,-100.00,North,-999,-999.0,-999.0,51,0.00,,,0.00,,2013-06-20 17:43:00,
2013-06-20 11:11:00,64.0,45.0,-100.00,North,-999,-999.0,-999.0,51,0.00,,,0.00,,2013-06-20 18:11:00,
2013-06-20 11:22:00,64.0,45.0,-100.00,North,-999,-999.0,-999.0,51,0.00,,,0.00,,2013-06-20 18:22:00,
2013-06-20 11:33:00,64.0,45.0,-100.00,North,-999,-999.0,-999.0,51,0.00,,,0.00,,2013-06-20 18:33:00,
2013-06-20 11:43:00,62.0,48.0,-100.00,North,-999,-999.0,-999.0,59,0.00,,,0.00,,2013-06-20 18:43:00,
2013-06-20 12:11:00,62.0,48.0,-100.00,North,-999,-999.0,-999.0,59,0.00,,,0.00,,2013-06-20 19:11:00,
2013-06-20 12:22:00,62.0,48.0,-100.00,North,-999,-999.0,-999.0,59,0.00,,,0.00,,2013-06-20 19:22:00,
2013-06-20 12:33:00,62.0,48.0,-100.00,North,-999,-999.0,-999.0,59,0.00,,,0.00,,2013-06-20 19:33:00,
2013-06-20 13:11:00,64.0,47.0,-100.00,North,-999,-999.0,-999.0,55,0.00,,,0.00,,2013-06-20 20:11:00,
2013-06-20 13:22:00,64.0,47.0,-100.00,North,-999,-999.0,-999.0,55,0.00,,,0.00,,2013-06-20 20:22:00,
2013-06-20 13:33:00,64.0,47.0,-100.00,North,-999,-999.0,-999.0,55,0.00,,,0.00,,2013-06-20 20:33:00,
2013-06-20 13:42:00,64.0,47.0,-100.00,North,-999,-999.0,-999.0,55,0.00,,,0.00,,2013-06-20 20:42:00,
2013-06-20 17:11:00,64.0,47.0,-100.00,North,-999,-999.0,-999.0,53,0.00,,,0.00,,2013-06-21 00:11:00,